Regional Weather Roundup
Issued by NWS Upton, NY

Current Version | Previous Version | Text Only | Print | Product List | Glossary On
Versions: 1 2 3 4 5 6 7 8 9 10 11 12 13 14 15 16 17 18 19 20 21 22 23 24 25 26 27 28 29 30 31 32 33 34 35 36 37 38 39 40 41 42 43 44 45 46 47 48 49 50
588
ASUS41 KOKX 141308
RWROKX

REGIONAL WEATHER ROUNDUP
NATIONAL WEATHER SERVICE NEW YORK NY
800 AM EST THU DEC 14 2017

NOTE: "FAIR" INDICATES FEW OR NO CLOUDS BELOW 12,000 FEET WITH NO
SIGNIFICANT WEATHER AND/OR OBSTRUCTIONS TO VISIBILITY.

NYZ071-072-176-178-NJZ106-104-141400-
NEW YORK CITY METRO AREA

CITY           SKY/WX    TMP DP  RH WIND       PRES   REMARKS
Central Park   LGT SNOW  27  25  92 VRB3      29.60R VSB 1
Bronx Bot Gard   N/A     27  23  86 N3        29.59R
Bronx Lehman C NOT AVBL
LaGuardia APRT LGT SNOW  27  24  89 N8        29.59R FOG     WCI  19
Queens College NOT AVBL
Kennedy INTL   LGT SNOW  27  25  92 N7        29.60R FOG     WCI  19
Breezy Point     N/A    N/A N/A N/A NE6         N/A
Brooklyn Coll  NOT AVBL
Staten Island  NOT AVBL
Newark/Liberty LGT SNOW  25  22  88 N10       29.59R FOG     WCI  15
Teterboro      LGT SNOW  25  22  88 N7        29.60R FOG     WCI  17
$$

NYZ177-179-078>081-141400-
LONG ISLAND NEW YORK

CITY           SKY/WX    TMP DP  RH WIND       PRES   REMARKS
Jones Beach      N/A    N/A N/A N/A NE10        N/A
Wantagh        NOT AVBL
Matinecock PT    N/A    N/A N/A N/A NE12        N/A
Farmingdale    LGT SNOW  27  25  92 NE10      29.58R VSB 1   WCI  17
MacArthur/ISP  SNOW      28  26  92 N7        29.58R VSB 1/2 WCI  21
Shirley        LGT SNOW  28  27  96 N6        29.60R FOG     WCI  22
Mt Sinai Harb    N/A    N/A N/A N/A N9          N/A
Westhampton    LGT SNOW  27  24  89 NE8       29.60R FOG     WCI  19
East Hampton   LGT SNOW  27  25  93 N5        29.59R WCI  21
Southold       NOT AVBL
Montauk          N/A     28  25  88 N10       29.61R WCI  19
$$

NYZ052-065-067-141400-
HUDSON VALLEY

CITY           SKY/WX    TMP DP  RH WIND       PRES   REMARKS
White Plains   LGT SNOW  22  19  89 N9        29.57R FOG     WCI  12
Larchmont Harb   N/A    N/A N/A N/A N5          N/A
Croton On Huds   N/A    N/A N/A N/A N2          N/A
Somers         NOT AVBL
Brewster       NOT AVBL
Newburgh       LGT SNOW  19  19 100 N6        29.60R FOG     WCI  11
Montgomery     LGT SNOW  20  17  88 N6        29.59R FOG     WCI  12
Otisville      NOT AVBL
Warwick        NOT AVBL
Suffern        NOT AVBL
Poughkeepsie   LGT SNOW  21  17  84 N6        29.61R FOG     WCI  13
Albany         FLURRIES  18  12  77 NW5       29.64R WCI  11
$$

NJZ001-105-106-008-010-013-015-019>022-104-141400-
NEW JERSEY

CITY           SKY/WX    TMP DP  RH WIND       PRES   REMARKS
Newark/Liberty LGT SNOW  25  22  88 N10       29.59R FOG     WCI  15
Teterboro      LGT SNOW  25  22  88 N7        29.60R FOG     WCI  17
Caldwell       LGT SNOW  23  21  92 VRB3      29.61R FOG
Somerville     LGT SNOW  24  22  91 N5        29.59R FOG     WCI  18
Linden         MIX PCPN  26  23  89 CALM      29.60R
Perth Amboy      N/A    N/A N/A N/A N7          N/A
Sussex         CLOUDY    21  19  92 CALM      29.59R
Andover        NOT AVBL
Trenton        CLOUDY    25  22  88 N7        29.58R FOG     WCI  17
Millville      FLURRIES  34  28  79 W9        29.62R WCI  27
Atlantic City  FLURRIES  37  27  67 W12G20    29.60R WCI  29
Wrightstown    CLOUDY    28  26  92 CALM      29.56R
Toms River     CLOUDY    30  28  92 W7        29.58R WCI  23
Belmar         CLOUDY    26  24  92 NW6       29.58R WCI  19
$$

PAZ047>061-062-071-141400-
EASTERN PENNSYLVANIA

CITY           SKY/WX    TMP DP  RH WIND       PRES   REMARKS
Philadelphia   CLOUDY    34  25  69 SW10      29.60R WCI  26
Allentown      CLOUDY    24  19  81 CALM      29.61R
Scranton       LGT SNOW  20  17  88 N7        29.61R FOG     WCI  11
$$

CTZ002-004>006-009-010-012-RIZ004-006-007-MAZ004-011-015-141400-
SOUTHERN NEW ENGLAND
 IN CT

CITY           SKY/WX    TMP DP  RH WIND       PRES   REMARKS
Bradley INTL   LGT SNOW  20  18  92 N6        29.61R FOG     WCI  12
Hartford       SNOW      22  18  85 N6        29.62R VSB 1/2 WCI  14
Danbury        LGT SNOW  22  18  85 N8        29.59R VSB 3/4 WCI  12
Wtrbury/Oxford LGT SNOW  19  17  92 N9        29.56R VSB 1   WCI   8
Norwalk Harbor   N/A    N/A N/A N/A N10         N/A
Bridgeport     SNOW      24  19  81 N8        29.60S VSB 1/2 WCI  15
Meriden        LGT SNOW  21  19  92 N5        29.61R VSB 3/4 WCI  15
New Haven      LGT SNOW  23  19  85 N7        29.60R FOG     WCI  15
Chester        LGT SNOW  21  19  93 N7        29.58R WCI  13
Groton         SNOW      22  19  89 N8        29.61R VSB 1/2 WCI  12
Wilimantic     LGT SNOW  22  18  85 N3        29.60R VSB 3/4

 IN RI

CITY           SKY/WX    TMP DP  RH WIND       PRES   REMARKS
Providence     SNOW      21  19  92 N7        29.62R VSB 1/2 WCI  12
Block Island   LGT SNOW  25  23  92 N13       29.58R VSB 3/4 WCI  14
Westerly       SNOW      23  21  92 N8        29.61R VSB 1/2 WCI  14
 IN MA

CITY           SKY/WX    TMP DP  RH WIND       PRES   REMARKS
Boston         FLURRIES  22  12  65 W10       29.61S WCI  11
Worcester      FLURRIES  16  10  77 NW10      29.53S WCI   4
Westfield      CLOUDY    19  15  84 N6        29.60S WCI  11
Provincetown   FLURRIES  25  20  81 NW7       29.60F WCI  17
Nantucket      FLURRIES  27  26  96 NE7       29.57F WCI  19
$$

ANZ330-335-338-340-345-350-353-355-141400-
COASTAL MARINE OBSERVATIONS


STATION/POSITION TIME  SKY/WX   TEMP    WIND        PRES    VSBY  WAVE
                                AIR SEA DIR/SP/G                  HT/PER
                 (UTC)          (F)     (DEG/KT/KT) (MB)    (MI)  (FT/S)
NY HARB ENTRANCE 1150            36 53  300/ 14/ 17 1000.3          4/ 6
20 S FIRE ISLAND 1150            41 51  280/ 23/ 29  999.9          7/ 7
GREAT SOUTH BAY  1145            28 45   20/  8/ 10   N/A
HUDSON CANYON    1150            48 56  260/ 25/ 31  998.7          9/ 7
KINGS POINT      1224            27 44   60/  7/  9 1002.7
EXECUTION ROCKS  1230            28      40/ 10/ 14   N/A
WESTERN LI SOUND NOT AVBL
CENTRAL LI SOUND 1215            27      30/ 10/ 14   N/A           1
ROBBINS REEF     1224            26     350/ 11/ 13 1001.9
$$


>>>>>>>>>>>>>>>>>>>>>>>>>>>> KEY <<<<<<<<<<<<<<<<<<<<<<<<<<<
>                                                          <
>     SKY/WX - Sky Condition/Present Weather               <
>     TMP    - Temperature in Fahrenheit                   <
>     DP     - Dew Point in Fahrenheit                     <
>     RH     - Relative Humidity in Percent                <
>     WIND   - Direction (from) and Speed in MPH           <
>     PRES   - Mean Sea Level Pressure (inches of Hg)      <
>     WCI    - Wind Chill Index                            <
>     VSB    - VISIBILITY IN MILES                         <
>     HX     - HEAT INDEX                                  <
>     TC     - TEMPERATURE IN CELSIUS                      <
>     VRB    - VARIABLE WIND DIRECTION                     <
>                                                          <
>>>>>>>>>>>>>>>>>>>>>>>>>>>> KEY <<<<<<<<<<<<<<<<<<<<<<<<<<<




USA.gov is the U.S. government's official web portal to all federal, state and local government web resources and services.